EW5790 Weather Reports


Display with metric or nautical units.
time (UTC)temp
F
wind
direction
speed
MPH
gust
MPH
rain 1hr
in
rain 24hr
in
rain mn
in
humidity
%
barometer
mb
20260904173049 98 299 0.0 0.0 0.00 0.00 0.00 46 1014.7
20260904170029 96 170 0.0 0.0 0.00 0.00 0.00 53 1015.1
20260904164525 96 209 0.0 0.0 0.00 0.00 0.00 51 1015.2
20260904163021 96 102 0.0 0.0 0.00 0.00 0.00 50 1015.4
20260904161517 94 13 0.0 0.0 0.00 0.00 0.00 53 1015.5
20260904160012 94 315 0.0 0.0 0.00 0.00 0.00 55 1015.6
20260904154507 93 297 0.0 0.0 0.00 0.00 0.00 60 1015.7
20260904153005 92 355 0.0 0.0 0.00 0.00 0.00 59 1015.8
20260904151604 91 330 0.0 0.0 0.00 0.00 0.00 60 1016.0
20260904150056 90 115 0.0 0.0 0.00 0.00 0.00 62 1016.0
20260904144607 89 355 0.0 0.0 0.00 0.00 0.00 62 1016.0
20260904143056 88 346 0.0 0.0 0.00 0.00 0.00 61 1015.9
20260904141541 87 5 0.0 0.0 0.00 0.00 0.00 59 1016.0
20260904140039 85 223 0.0 0.0 0.00 0.00 0.00 46 1016.0
20260904134534 81 223 0.0 0.0 0.00 0.00 0.00 18 1016.0
20260904133029 78 223 0.0 0.0 0.00 0.00 0.00 1 1015.9
20260904131527 78 223 0.0 0.0 0.00 0.00 0.00 1 1016.0
20260904130021 76 223 0.0 0.0 0.00 0.00 0.00 1 1016.1
20260904124515 75 223 0.0 0.0 0.00 0.00 0.00 1 1016.1
20260904123011 73 223 0.0 0.0 0.00 0.00 0.00 1 1015.8
20260904121507 72 223 0.0 0.0 0.00 0.00 0.00 1 1015.7
20260904120003 70 138 0.0 0.0 0.00 0.00 0.00 1 1015.5
20260904114559 70 138 0.0 0.0 0.00 0.00 0.00 1 1015.3
20260904113054 70 138 0.0 0.0 0.00 0.00 0.00 1 1015.3
20260904111550 70 138 0.0 0.0 0.00 0.00 0.00 1 1015.2
20260904110046 70 138 0.0 0.0 0.00 0.00 0.00 1 1015.1
20260904104542 70 138 0.0 0.0 0.00 0.00 0.00 1 1014.9
20260904103037 70 138 0.0 0.0 0.00 0.00 0.00 1 1015.0
20260904101532 70 138 0.0 0.0 0.00 0.00 0.00 1 1014.8
20260904100028 71 138 0.0 0.0 0.00 0.00 0.00 1 1014.7
20260904094524 71 138 0.0 0.0 0.00 0.00 0.00 1 1014.8
20260904093021 71 138 0.0 0.0 0.00 0.00 0.00 1 1014.7
20260904091529 71 138 0.0 0.0 0.00 0.00 0.00 1 1014.6
20260904090015 71 138 0.0 0.0 0.00 0.00 0.00 1 1014.6
20260904084506 71 138 0.0 0.0 0.00 0.00 0.00 1 1014.5
20260904083003 71 138 0.0 0.0 0.00 0.00 0.00 1 1014.6
20260904081559 71 138 0.0 0.0 0.00 0.00 0.00 1 1014.6
20260904080053 72 138 0.0 0.0 0.00 0.00 0.00 1 1014.5
20260904074600 72 138 0.0 0.0 0.00 0.00 0.00 1 1014.4
20260904073044 72 138 0.0 0.0 0.00 0.00 0.00 1 1014.5
20260904071558 72 138 0.0 0.0 0.00 0.00 0.00 1 1014.5
20260904070035 72 138 0.0 0.0 0.00 0.00 0.00 1 1014.6
20260904064534 72 138 0.0 0.0 0.00 0.00 0.00 1 1014.6
20260904063037 72 138 0.0 0.0 0.00 0.00 0.00 1 1014.7
20260904061522 73 138 0.0 0.0 0.00 0.00 0.00 1 1014.7
20260904060017 73 138 0.0 0.0 0.00 0.00 0.00 1 1014.8
20260904054513 73 138 0.0 0.0 0.00 0.00 0.00 1 1014.9
20260904053009 73 138 0.0 0.0 0.00 0.00 0.00 1 1015.0
20260904051507 74 138 0.0 0.0 0.00 0.00 0.00 1 1015.2
20260904050104 74 138 0.0 0.0 0.00 0.00 0.00 1 1015.3
20260904044607 74 138 0.0 0.0 0.00 0.00 0.00 1 1015.4
20260904043052 74 138 0.0 0.0 0.00 0.00 0.00 1 1015.5
20260904041547 74 138 0.0 0.0 0.00 0.00 0.00 1 1015.5
20260904040043 74 138 0.0 0.0 0.00 0.00 0.00 1 1015.4
20260904034538 75 138 0.0 0.0 0.00 0.00 0.00 1 1015.4
20260904033036 75 138 0.0 0.0 0.00 0.00 0.00 1 1015.6
20260904031529 75 138 0.0 0.0 0.00 0.00 0.00 1 1015.5
20260904030034 75 138 0.0 0.0 0.00 0.00 0.00 1 1015.5
20260904024522 76 138 0.0 0.0 0.00 0.00 0.00 1 1015.5
20260904023016 76 138 0.0 0.0 0.00 0.00 0.00 1 1015.5
20260904021529 76 138 0.0 0.0 0.00 0.00 0.00 1 1015.4
20260904020007 77 138 0.0 0.0 0.00 0.00 0.00 1 1015.3
20260904014503 78 138 0.0 0.0 0.00 0.00 0.00 1 1015.2
20260904013059 78 138 0.0 0.0 0.00 0.00 0.00 1 1015.0
20260904011555 79 138 0.0 0.0 0.00 0.00 0.00 2 1014.7
20260904010052 80 138 0.0 0.0 0.00 0.00 0.00 14 1014.6
20260904004547 81 138 0.0 0.0 0.00 0.00 0.00 25 1014.3
20260904003041 83 138 0.0 0.0 0.00 0.00 0.00 40 1014.0
20260904001539 85 138 0.0 0.0 0.00 0.00 0.00 51 1013.7
20260904000032 87 317 0.0 0.0 0.00 0.00 0.00 60 1013.6
20260903234527 89 317 0.0 0.0 0.00 0.00 0.00 63 1013.6
20260903233027 92 317 0.0 0.0 0.00 0.00 0.00 62 1013.5
20260903231518 95 317 0.0 0.0 0.00 0.00 0.00 57 1013.3
20260903230020 97 317 0.0 0.0 0.00 0.00 0.00 55 1013.2
20260903224510 98 318 0.0 0.0 0.00 0.00 0.00 53 1013.3
20260903223006 99 329 0.0 0.0 0.00 0.00 0.00 51 1013.3
20260903221501 99 344 0.0 0.0 0.00 0.00 0.00 44 1013.2
20260903220057 99 347 0.0 0.0 0.00 0.00 0.00 43 1013.2
20260903214602 99 333 0.0 0.0 0.00 0.00 0.00 43 1013.3
20260903213048 100 266 0.0 0.0 0.00 0.00 0.00 45 1013.4
20260903211549 98 333 0.0 0.0 0.00 0.00 0.00 46 1013.5
20260903210041 97 123 0.0 0.0 0.00 0.00 0.00 48 1013.8
20260903204534 98 126 0.0 0.0 0.00 0.00 0.00 49 1013.9
20260903203045 99 112 0.0 0.0 0.00 0.00 0.00 46 1014.1
20260903201526 96 307 0.0 0.0 0.00 0.00 0.00 49 1014.2
20260903200038 95 128 0.0 0.0 0.00 0.00 0.00 50 1014.3
20260903194534 95 99 0.0 0.0 0.00 0.00 0.00 51 1014.5
20260903193015 96 129 0.0 0.0 0.00 0.00 0.00 50 1014.5
20260903191534 96 219 0.0 0.0 0.00 0.00 0.00 49 1014.8
20260903190113 95 104 0.0 0.0 0.00 0.00 0.00 52 1015.0
20260903184609 95 263 0.0 0.0 0.00 0.00 0.00 51 1015.0
20260903183054 95 263 0.0 0.0 0.00 0.00 0.00 50 1015.3
20260903181603 95 116 0.0 0.0 0.00 0.00 0.00 49 1015.4
20260903180110 97 116 0.0 0.0 0.00 0.00 0.00 47 1015.5
20260903174543 98 164 0.0 0.0 0.00 0.00 0.00 47 1015.6